Taegu AB current weather conditions

sailwx.info

Wind from 320 at 15 knots

Air temperature 5.0° C
Visibility: greater than 4.3 NM
Dewpoint -2.0° C

Last reported at 2014-Dec-20 04:00 UTC.
Time now 2014-Dec-20 05:52 UTC

Location: N 35°54' E 128°39'.
View on Google Maps.

See reports from other nearby stations

  
Tides and Currents Weather Stations Pressure Air Temp Water Temp Dewpoint Dewpoint Depression Visibility Wind Speed Wind Dir Waves Ship Positions
date/time (UTC)wind fromknots sea level pressurealtimeterstation pressurevisibilityair tempwater tempwave heightnotes
2014-Dec-20 04:00 320 15 4.3 5.0
2014-Dec-20 03:00 300 10 3.2 5.0
2014-Dec-20 02:00 290 5 4.3 4.0
2014-Dec-20 01:00 310 3 3.2 2.0
2014-Dec-20 00:00 330 4 2.6 1.0 Mist.
2014-Dec-19 23:00 320 1 3.2-1.0
2014-Dec-19 22:00 110 1 3.2-0.0
2014-Dec-19 21:00 320 2 2.6-0.0 Light rain snow. Mist.
2014-Dec-19 20:00 300 1 2.6 1.0 Light rain snow. Mist.
2014-Dec-19 19:00 130 1 2.6-0.0 Light rain snow. Mist.
2014-Dec-19 18:00 140 1 2.6 1.0 Light rain snow. Mist.
2014-Dec-19 17:00 150 1 2.6 1.0 Light rain snow. Mist.
2014-Dec-19 16:00 100 1 3.2 1.0 Light rain snow. Mist.
2014-Dec-19 14:00 010 2 4.3 2.0 Light rain. Haze.
2014-Dec-19 13:00 340 1 4.9 2.0 Light rain.
2014-Dec-19 12:50 340 1 4.9 2.0 Light rain.
2014-Dec-19 12:00 350 1 5.4 1.0
2014-Dec-19 11:00 320 1 5.4 2.0
2014-Dec-19 10:14 030 1 2.0
2014-Dec-19 10:00 030 1 2.0
2014-Dec-19 09:00 320 1 3.0
2014-Dec-19 08:00 280 3 3.0
2014-Dec-19 07:00 270 2 3.0
2014-Dec-19 06:00 270 4 3.0
2014-Dec-19 05:00 290 3 5.4 3.0
2014-Dec-19 04:00 290 3 5.4 1.0
2014-Dec-19 03:00 280 1 -0.0
2014-Dec-19 02:00 280 1 -2.0
2014-Dec-19 01:00 300 2 -3.0
2014-Dec-19 00:00 360 2 -6.0
2014-Dec-18 23:00 330 1 -8.0
2014-Dec-18 22:00 150 1 -8.0
2014-Dec-18 21:00 020 1 -8.0
2014-Dec-18 20:00 010 1 -8.0
2014-Dec-18 19:00 120 1 5.4-9.0
2014-Dec-18 17:00 120 1 5.4-8.0
2014-Dec-18 15:00 150 1 5.4-7.0
2014-Dec-18 14:00 060 1 5.4-6.0
2014-Dec-18 13:00 110 1 -6.0
2014-Dec-18 12:00 040 1 -4.0
2014-Dec-18 11:00 090 1 -3.0
2014-Dec-18 10:00 290 1 -1.0
2014-Dec-18 09:00 300 6 -1.0
2014-Dec-18 08:00 310 9 -0.0
2014-Dec-18 07:00 310 10 1.0
2014-Dec-18 06:00 340 9 2.0
2014-Dec-18 05:00 320 13 1.0